Change the Weather History Date:

Saturday, September 1, 2012

  Actual Average (KHFF) Record (KHFF)
Temperature  
Mean Temperature 83 °F -  
Max Temperature 93 °F 83 °F 99 °F (2014)
Min Temperature 73 °F 66 °F 62 °F (1999)
Cooling Degree Days 18    
Growing Degree Days 33 (Base 50)    
Moisture  
Dew Point 74 °F    
Average Humidity 80    
Maximum Humidity 99    
Minimum Humidity 50    
Precipitation  
Precipitation 0.00 in - - ()
Sea Level Pressure  
Sea Level Pressure 30.10 in    
Wind  
Wind Speed 1 mph (WNW)    
Max Wind Speed 9 mph    
Max Gust Speed 16 mph    
Visibility 10 miles    
Events      
Averages and records for this station are not official NWS values.
T = Trace of Precipitation, MM = Missing Value Source: NWS Daily Summary

Daily Weather History Graph

Daily Weather History Graph

Search for Another Location

Airport or City:

Trip Planner

Search our weather history database for the weather conditions in past years. The results will help you decide how hot, cold, wet, or windy it might be!

Date:

Astronomy

Sep. 01, 2012 Rise Set
Actual Time 6:52 AM EDT 7:44 PM EDT
Civil Twilight 6:26 AM EDT 8:10 PM EDT
Nautical Twilight 5:55 AM EDT 8:41 PM EDT
Astronomical Twilight 5:24 AM EDT 9:12 PM EDT
Moon 8:07 PM EDT (9/1) 7:52 AM EDT (9/1)
Length of Visible Light 13h 44m
Length of Day
12h 52m
Full, 99% of the Moon is Illuminated
Sep 1
Full
Sep 8
Last Quarter
Sep 15
New
Sep 22
First Quarter
Sep 29
Full

Hourly Weather History & Observations

Time (EDT) Temp. Heat Index Dew Point Humidity Pressure Visibility Wind Dir Wind Speed Gust Speed Precip Events Conditions
12:15 AM 78.1 °F - 74.8 °F 90% 30.13 in 10.0 mi Calm Calm - N/A   Clear
12:35 AM 77.9 °F - 74.7 °F 90% 30.13 in 10.0 mi SW 3.5 mph - N/A   Clear
12:55 AM 77.5 °F - 74.5 °F 90% 30.13 in 10.0 mi Calm Calm - N/A   Clear
1:15 AM 77.4 °F - 74.3 °F 90% 30.13 in 10.0 mi Calm Calm - N/A   Clear
1:35 AM 77.4 °F - 74.3 °F 90% 30.13 in 10.0 mi Calm Calm - N/A   Clear
1:55 AM 77.2 °F - 74.3 °F 91% 30.12 in 10.0 mi Calm Calm - N/A   Clear
2:15 AM 77.0 °F - 74.3 °F 91% 30.12 in 10.0 mi Calm Calm - N/A   Clear
2:35 AM 76.1 °F - 74.1 °F 94% 30.12 in 10.0 mi Calm Calm - N/A   Clear
2:55 AM 75.6 °F - 74.1 °F 95% 30.11 in 10.0 mi Calm Calm - N/A   Clear
3:15 AM 75.4 °F - 73.9 °F 95% 30.11 in 10.0 mi Calm Calm - N/A   Clear
3:35 AM 75.4 °F - 73.9 °F 95% 30.11 in 10.0 mi Calm Calm - N/A   Clear
3:55 AM 75.2 °F - 73.8 °F 95% 30.11 in 10.0 mi Calm Calm - N/A   Clear
4:15 AM 74.8 °F - 73.6 °F 96% 30.11 in 10.0 mi Calm Calm - N/A   Clear
4:35 AM 74.8 °F - 73.6 °F 96% 30.11 in 10.0 mi Calm Calm - N/A   Clear
4:55 AM 74.3 °F - 73.4 °F 97% 30.11 in 7.0 mi Calm Calm - N/A   Clear
5:15 AM 74.3 °F - 73.6 °F 98% 30.11 in 10.0 mi Calm Calm - N/A   Clear
5:35 AM 74.3 °F - 73.4 °F 97% 30.11 in 10.0 mi Calm Calm - N/A   Clear
5:55 AM 73.8 °F - 73.4 °F 99% 30.11 in 10.0 mi Calm Calm - N/A   Clear
6:15 AM 73.9 °F - 73.4 °F 98% 30.11 in 7.0 mi Calm Calm - N/A   Clear
6:35 AM 73.4 °F - 73.0 °F 99% 30.12 in 7.0 mi Calm Calm - N/A   Clear
6:55 AM 73.4 °F - 73.0 °F 99% 30.13 in 7.0 mi Calm Calm - N/A   Clear
7:15 AM 73.4 °F - 73.0 °F 99% 30.13 in 7.0 mi Calm Calm - N/A   Clear
7:35 AM 73.6 °F - 73.4 °F 99% 30.14 in 7.0 mi Calm Calm - N/A   Clear
7:55 AM 74.3 °F - 73.8 °F 98% 30.14 in 7.0 mi Calm Calm - N/A   Clear
8:35 AM 76.6 °F - 74.5 °F 93% 30.15 in 10.0 mi Calm Calm - N/A   Clear
8:55 AM 78.1 °F - 74.5 °F 89% 30.15 in 10.0 mi Calm Calm - N/A   Clear
9:15 AM 79.3 °F - 74.8 °F 86% 30.15 in 10.0 mi Calm Calm - N/A   Clear
9:35 AM 80.8 °F 86.3 °F 74.8 °F 82% 30.15 in 10.0 mi Calm Calm - N/A   Clear
9:55 AM 82.0 °F 88.6 °F 74.8 °F 79% 30.15 in 10.0 mi Calm Calm - N/A   Clear
10:15 AM 83.3 °F 90.8 °F 74.8 °F 76% 30.15 in 10.0 mi Calm Calm - N/A   Clear
10:35 AM 84.9 °F 93.7 °F 75.2 °F 73% 30.15 in 10.0 mi West 4.6 mph - N/A   Clear
10:55 AM 86.2 °F 95.5 °F 75.2 °F 70% 30.15 in 10.0 mi West 5.8 mph - N/A   Clear
11:15 AM 86.7 °F 96.9 °F 75.7 °F 70% 30.14 in 10.0 mi West 5.8 mph - N/A   Scattered Clouds
11:35 AM 87.8 °F 98.6 °F 76.1 °F 68% 30.14 in 10.0 mi West 5.8 mph - N/A   Clear
11:55 AM 88.7 °F 98.7 °F 75.2 °F 64% 30.13 in 10.0 mi West 8.1 mph - N/A   Clear
12:15 PM 89.2 °F 98.4 °F 74.3 °F 61% 30.13 in 10.0 mi West 6.9 mph - N/A   Clear
12:35 PM 90.0 °F 99.0 °F 74.1 °F 59% 30.13 in 10.0 mi West 5.8 mph - N/A   Clear
12:55 PM 90.7 °F 99.6 °F 73.8 °F 57% 30.13 in 10.0 mi NW 4.6 mph - N/A   Clear
1:15 PM 91.2 °F 99.7 °F 73.0 °F 55% 30.12 in 10.0 mi Calm Calm - N/A   Clear
1:35 PM 91.4 °F 100.1 °F 73.2 °F 55% 30.11 in 10.0 mi SSW 3.5 mph - N/A   Clear
1:55 PM 92.1 °F 100.5 °F 72.9 °F 53% 30.10 in 10.0 mi Calm Calm - N/A   Clear
2:15 PM 92.7 °F 101.1 °F 72.9 °F 52% 30.08 in 10.0 mi West 4.6 mph - N/A   Clear
2:35 PM 92.5 °F 101.3 °F 73.2 °F 53% 30.08 in 10.0 mi WNW 4.6 mph - N/A   Clear
3:15 PM 93.0 °F 100.7 °F 71.6 °F 50% 30.06 in 10.0 mi WNW 3.5 mph - N/A   Clear
3:35 PM 91.2 °F 98.5 °F 71.8 °F 53% 30.06 in 10.0 mi NW 5.8 mph - N/A   Clear
3:55 PM 89.1 °F 96.0 °F 72.1 °F 57% 30.06 in 10.0 mi NNE 9.2 mph 16.1 mph N/A   Scattered Clouds
4:15 PM 84.6 °F 89.7 °F 71.2 °F 64% 30.07 in 10.0 mi NW 5.8 mph - N/A   Scattered Clouds
4:35 PM 84.0 °F 89.6 °F 72.1 °F 67% 30.07 in 10.0 mi ENE 4.6 mph - N/A   Mostly Cloudy
4:55 PM 85.3 °F 90.8 °F 71.4 °F 63% 30.05 in 10.0 mi SE 9.2 mph - N/A   Scattered Clouds
5:15 PM 86.5 °F 93.3 °F 72.5 °F 63% 30.05 in 10.0 mi ESE 5.8 mph - N/A   Clear
5:35 PM 86.4 °F 92.6 °F 72.1 °F 62% 30.05 in 10.0 mi NNE 3.5 mph - N/A   Clear
5:55 PM 85.3 °F 91.8 °F 72.9 °F 66% 30.05 in 10.0 mi Calm Calm - N/A   Clear
6:15 PM 84.6 °F 90.7 °F 72.7 °F 67% 30.05 in 10.0 mi Calm Calm - N/A   Clear
6:35 PM 83.8 °F 90.1 °F 73.2 °F 70% 30.05 in 10.0 mi NE 3.5 mph - N/A   Clear
6:55 PM 83.3 °F 89.3 °F 73.0 °F 71% 30.06 in 10.0 mi Calm Calm - N/A   Clear
7:15 PM 83.1 °F 89.5 °F 73.6 °F 73% 30.06 in 10.0 mi Calm Calm - N/A   Clear
7:35 PM 82.4 °F 88.4 °F 73.6 °F 75% 30.06 in 10.0 mi Calm Calm - N/A   Clear
7:55 PM 81.3 °F 87.2 °F 74.5 °F 80% 30.06 in 10.0 mi Calm Calm - N/A   Clear
8:15 PM 80.8 °F 85.9 °F 74.1 °F 80% 30.06 in 10.0 mi Calm Calm - N/A   Clear
8:35 PM 80.2 °F 85.4 °F 75.0 °F 84% 30.07 in 10.0 mi Calm Calm - N/A   Clear
8:55 PM 80.1 °F 85.1 °F 75.2 °F 85% 30.06 in 10.0 mi Calm Calm - N/A   Clear
9:15 PM 79.0 °F - 75.7 °F 90% 30.07 in 10.0 mi Calm Calm - N/A   Clear
9:35 PM 78.4 °F - 75.9 °F 92% 30.08 in 10.0 mi Calm Calm - N/A   Clear
10:15 PM 77.0 °F - 75.9 °F 96% 30.08 in 7.0 mi WNW 4.6 mph - N/A   Clear
10:35 PM 77.0 °F - 76.1 °F 97% 30.07 in 10.0 mi Calm Calm - N/A   Clear
10:55 PM 77.0 °F - 75.6 °F 95% 30.07 in 10.0 mi Calm Calm - N/A   Clear
11:15 PM 76.5 °F - 75.0 °F 95% 30.07 in 10.0 mi Calm Calm - N/A   Clear
11:35 PM 76.3 °F - 74.5 °F 94% 30.06 in 10.0 mi Calm Calm - N/A   Clear